Date String (YYYY-MM-DD hh:mm:ss) UTC,Instrument flags,absolute air pressure of the measurement (hPa),sample flow rate (lpm),inlet stack bypass flow (lpm),air temperature of the measurement (°C),ambient temperature measured by the external sensor (°C),aerosol sample conditioner tube jacket temperature (°C),OPC LED temperature (°C),internal box temperature (°C),relative humidity of the measurement (%),span deviation,mass concentration of particles derived from Lorenz-Mie calculation of OPC scattering (μg/m³),mass concentration of particles derived from Lorenz-Mie calculation of OPC scattering (μg/m³),mass concentration of particles derived from Lorenz-Mie calculation of OPC scattering (μg/m³)
DateTimeUTC,F1_M11,P_M11,Q1_M11,Q2_M11,T1_M11,T2_M11,T3_M11,T4_M11,T5_M11,U1_M11,ZSPAN_M11,X2_M11,X0_M11,X1_M11
2023-07-01 19:00:00,SystemResetWarning,0835.0,5.00,000.00,028.7,025.1,000.0,037.0,029.9,24.5,0000.0,0004.17,0009.99,0003.74
2023-07-01 19:01:00,SystemResetWarning,0835.3,5.00,000.00,028.6,025.6,000.0,037.1,030.0,24.4,0000.0,0004.19,0010.19,0003.75
2023-07-01 19:02:00,SystemResetWarning,0834.9,5.00,000.00,028.6,026.0,000.0,037.1,030.1,24.7,0000.0,0004.20,0010.01,0003.75
2023-07-01 19:03:00,SystemResetWarning,0834.8,5.00,000.00,028.6,026.4,000.0,037.1,030.2,24.0,0000.0,0004.18,0009.71,0003.74
2023-07-01 19:04:00,SystemResetWarning,0835.3,4.99,000.00,028.7,026.7,000.0,037.1,030.3,23.3,0000.0,0004.17,0009.10,0003.75
2023-07-01 19:05:00,SystemResetWarning,0835.1,5.00,000.00,028.7,027.0,000.0,037.1,030.4,23.9,0000.0,0004.15,0009.09,0003.76
2023-07-01 19:06:00,SystemResetWarning,0835.2,5.01,000.00,028.7,027.3,000.0,037.1,030.4,24.7,0000.0,0004.14,0008.53,0003.77
2023-07-01 19:07:00,SystemResetWarning,0834.9,5.01,000.00,028.8,027.5,000.0,037.2,030.5,24.8,0000.0,0004.16,0008.40,0003.78
2023-07-01 19:08:00,SystemResetWarning,0834.7,5.01,000.00,028.8,027.6,000.0,037.2,030.6,25.9,0000.0,0004.21,0008.94,0003.80
2023-07-01 19:09:00,SystemResetWarning,0835.0,4.99,000.00,028.9,027.3,000.0,037.2,030.6,24.1,0000.0,0004.23,0009.18,0003.81
2023-07-01 19:10:00,SystemResetWarning,0835.2,5.00,000.00,028.8,025.7,000.0,037.1,030.4,23.9,0000.0,0004.20,0008.66,0003.82
2023-07-01 19:11:00,SystemResetWarning,0835.0,5.02,000.00,028.8,025.5,000.0,037.0,030.3,24.4,0000.0,0004.18,0008.58,0003.82
2023-07-01 19:12:00,SystemResetWarning,0834.7,4.98,000.00,028.8,025.8,000.0,037.0,030.2,25.3,0000.0,0004.16,0008.59,0003.82
2023-07-01 19:13:00,SystemResetWarning,0834.5,4.99,000.00,028.7,026.1,000.0,037.1,030.2,25.5,0000.0,0004.12,0008.61,0003.82
2023-07-01 19:14:00,SystemResetWarning,0834.7,5.01,000.00,028.7,026.5,000.0,037.1,030.3,25.4,0000.0,0004.13,0009.26,0003.82
2023-07-01 19:15:00,SystemResetWarning,0834.7,5.01,000.00,028.8,026.8,000.0,037.2,030.4,24.9,0000.0,0004.17,0009.95,0003.82
2023-07-01 19:16:00,SystemResetWarning,0834.7,5.00,000.00,028.8,027.1,000.0,037.2,030.5,24.6,0000.0,0004.19,0010.13,0003.83
2023-07-01 19:17:00,SystemResetWarning,0834.7,5.00,000.00,028.8,027.4,000.0,037.2,030.5,23.4,0000.0,0004.19,0010.33,0003.83
2023-07-01 19:18:00,SystemResetWarning,0834.6,5.00,000.00,028.9,027.5,000.0,037.2,030.6,24.0,0000.0,0004.18,0010.74,0003.82
2023-07-01 19:19:00,SystemResetWarning,0834.7,4.98,000.00,028.9,026.5,000.0,037.2,030.5,24.6,0000.0,0004.15,0010.42,0003.83
2023-07-01 19:20:00,SystemResetWarning,0834.9,5.01,000.00,028.8,025.5,000.0,037.1,030.4,25.8,0000.0,0004.13,0010.18,0003.82
2023-07-01 19:21:00,SystemResetWarning,0835.1,5.01,000.00,028.8,025.6,000.0,037.0,030.3,24.9,0000.0,0004.17,0010.24,0003.81
2023-07-01 19:22:00,SystemResetWarning,0835.1,5.01,000.00,028.8,025.9,000.0,037.1,030.2,24.4,0000.0,0004.20,0011.54,0003.83
2023-07-01 19:23:00,SystemResetWarning,0834.9,4.99,000.00,028.8,026.3,000.0,037.1,030.3,25.7,0000.0,0004.25,0011.86,0003.84
2023-07-01 19:24:00,SystemResetWarning,0835.0,4.99,000.00,028.8,026.6,000.0,037.2,030.3,25.4,0000.0,0004.29,0011.64,0003.86
2023-07-01 19:25:00,SystemResetWarning,0835.0,5.00,000.00,028.8,026.9,000.0,037.2,030.4,25.0,0000.0,0004.29,0011.24,0003.86
2023-07-01 19:26:00,SystemResetWarning,0834.6,5.01,000.00,028.8,027.2,000.0,037.2,030.5,24.5,0000.0,0004.30,0010.89,0003.86
2023-07-01 19:27:00,SystemResetWarning,0834.5,5.01,000.00,028.9,027.5,000.0,037.2,030.6,26.2,0000.0,0004.35,0010.46,0003.88
2023-07-01 19:28:00,SystemResetWarning,0834.5,4.99,000.00,028.9,027.7,000.0,037.3,030.6,24.7,0000.0,0004.41,0010.55,0003.91
2023-07-01 19:29:00,SystemResetWarning,0834.5,4.98,000.00,028.9,026.8,000.0,037.2,030.6,24.3,0000.0,0004.47,0010.61,0003.95
2023-07-01 19:30:00,SystemResetWarning,0834.5,5.02,000.00,028.9,025.5,000.0,037.1,030.4,24.0,0000.0,0004.54,0010.43,0003.98
2023-07-01 19:31:00,SystemResetWarning,0834.5,5.00,000.00,028.9,025.6,000.0,037.1,030.3,23.8,0000.0,0004.57,0010.45,0004.00
2023-07-01 19:32:00,SystemResetWarning,0834.5,4.99,000.00,028.8,025.9,000.0,037.1,030.2,23.7,0000.0,0004.59,0010.47,0004.03
2023-07-01 19:33:00,SystemResetWarning,0834.5,5.00,000.00,028.8,026.3,000.0,037.2,030.3,25.1,0000.0,0004.58,0009.57,0004.05
2023-07-01 19:34:00,SystemResetWarning,0834.4,5.01,000.00,028.8,026.6,000.0,037.2,030.4,24.7,0000.0,0004.57,0008.81,0004.06
2023-07-01 19:35:00,SystemResetWarning,0834.4,5.01,000.00,028.8,026.9,000.0,037.2,030.4,25.0,0000.0,0004.58,0008.87,0004.07
2023-07-01 19:36:00,SystemResetWarning,0834.4,4.99,000.00,028.9,027.2,000.0,037.3,030.5,23.9,0000.0,0004.61,0008.94,0004.09
2023-07-01 19:37:00,SystemResetWarning,0834.4,5.00,000.00,028.9,027.5,000.0,037.3,030.6,23.9,0000.0,0004.63,0008.95,0004.12
2023-07-01 19:38:00,SystemResetWarning,0834.4,5.00,000.00,028.9,027.7,000.0,037.3,030.7,24.2,0000.0,0004.59,0008.88,0004.14
2023-07-01 19:39:00,SystemResetWarning,0834.4,4.99,000.00,029.0,027.1,000.0,037.3,030.7,24.2,0000.0,0004.59,0009.10,0004.14
2023-07-01 19:40:00,SystemResetWarning,0834.4,5.00,000.00,028.9,025.3,000.0,037.1,030.4,24.8,0000.0,0004.58,0008.72,0004.14
2023-07-01 19:41:00,SystemResetWarning,0834.3,5.02,000.00,028.8,024.6,000.0,037.0,030.2,24.3,0000.0,0004.57,0008.68,0004.14
2023-07-01 19:42:00,SystemResetWarning,0834.4,5.00,000.00,028.8,024.9,000.0,037.0,030.0,24.2,0000.0,0004.58,0008.68,0004.15
2023-07-01 19:43:00,SystemResetWarning,0834.6,4.99,000.00,028.7,025.3,000.0,037.1,030.0,24.9,0000.0,0004.58,0008.68,0004.15
2023-07-01 19:44:00,SystemResetWarning,0834.4,5.00,000.00,028.7,025.7,000.0,037.1,030.1,25.1,0000.0,0004.61,0008.73,0004.15
2023-07-01 19:45:00,SystemResetWarning,0834.3,5.00,000.00,028.7,026.2,000.0,037.1,030.2,26.3,0000.0,0004.66,0009.15,0004.16
2023-07-01 19:46:00,SystemResetWarning,0834.4,4.98,000.00,028.7,026.5,000.0,037.2,030.3,24.5,0000.0,0004.67,0009.65,0004.16
2023-07-01 19:47:00,SystemResetWarning,0834.3,5.01,000.00,028.7,026.9,000.0,037.2,030.4,25.9,0000.0,0004.66,0010.05,0004.15
2023-07-01 19:48:00,SystemResetWarning,0834.4,5.01,000.00,028.8,027.2,000.0,037.2,030.4,24.4,0000.0,0004.66,0010.07,0004.16
2023-07-01 19:49:00,SystemResetWarning,0834.5,4.99,000.00,028.8,027.4,000.0,037.2,030.5,24.3,0000.0,0004.67,0009.89,0004.15
2023-07-01 19:50:00,SystemResetWarning,0834.3,4.99,000.00,028.9,027.6,000.0,037.2,030.6,24.1,0000.0,0004.71,0009.72,0004.15
2023-07-01 19:51:00,SystemResetWarning,0834.4,4.99,000.00,028.9,027.8,000.0,037.3,030.6,24.2,0000.0,0004.69,0010.15,0004.15
2023-07-01 19:52:00,SystemResetWarning,0834.3,5.00,000.00,028.9,026.7,000.0,037.2,030.5,24.7,0000.0,0004.69,0010.19,0004.15
2023-07-01 19:53:00,SystemResetWarning,0834.2,5.00,000.00,028.8,024.9,000.0,037.1,030.2,24.7,0000.0,0004.65,0010.29,0004.14
2023-07-01 19:54:00,SystemResetWarning,0834.2,5.02,000.00,028.8,024.5,000.0,037.0,030.1,25.0,0000.0,0004.63,0010.25,0004.14
2023-07-01 19:55:00,SystemResetWarning,0834.1,5.00,000.00,028.7,024.8,000.0,037.0,029.9,24.5,0000.0,0004.60,0010.15,0004.13
2023-07-01 19:56:00,SystemResetWarning,0834.1,5.00,000.00,028.6,025.3,000.0,037.0,030.0,24.7,0000.0,0004.60,0009.92,0004.13
2023-07-01 19:57:00,SystemResetWarning,0834.1,5.00,000.00,028.6,025.8,000.0,037.1,030.1,24.9,0000.0,0004.59,0009.20,0004.13
2023-07-01 19:58:00,SystemResetWarning,0834.1,5.00,000.00,028.6,026.2,000.0,037.1,030.2,24.8,0000.0,0004.57,0008.79,0004.14
2023-07-01 19:59:00,SystemResetWarning,0834.3,4.99,000.00,028.7,026.6,000.0,037.1,030.3,24.8,0000.0,0004.56,0008.50,0004.14
